Meath Environmental Platform

Observations for Trim Market St

Time AQI Temp °C Hum % Pres Pa CO μg/m³ H₂S μg/m³ NO μg/m³ NO₂ μg/m³ O₃ μg/m³ SO₂ μg/m³ PM1 μg/m³ PM2.5 μg/m³ PM10 μg/m³
Sunday 12 July 2026
13:46 1 34.8 32 66,343 0 0 0 0 25.13 0 3.56 7.01 7.52
13:45 1 34.8 32 66,355 0 0 0 0 32.5 0 2.85 6.47 7.52
13:44 1 34.8 32 66,364 0 0 0 0 46.08 0 2.85 7.54 8.38
13:43 1 34.7 32 66,382 0 0 0 3.08 43.8 0 2.85 5.93 7.52
13:42 1 34.7 32 66,372 0 0 0 0 38.05 0 3.56 7.01 7.52
13:41 1 34.7 32 66,362 0 0 0 0 36.63 0 2.85 7.01 7.52
13:38 1 34.6 32 66,337 0 0 0 0 33.19 0 2.14 5.37 7.52
13:37 1 34.6 33 66,321 0 0 0 0 12.89 0 3.56 6.97 9.22
13:34 1 34.5 32 66,309 0 0 0 1.78 44.66 0 2.85 5.91 6.5
13:32 1 34.4 32 66,311 0 0 0 0 34.86 0 2.14 5.92 6.51
13:29 1 34.4 32 66,294 0 0 0 0 36.5 0 2.85 5.38 5.82
13:27 1 34.5 32 66,327 0 0 0 0 37.01 0 2.85 5.92 6.67
13:20 1 34.5 32 66,297 0 0 0 0 36.31 0 2.85 6.45 7.52
13:17 1 34.4 33 66,303 0 0 0 0 37.6 0 1.43 5.35 5.88
13:16 1 34.3 33 66,309 0 0 0 0 39.76 0 1.43 5.35 5.88
13:15 1 34.3 33 66,313 0 0 0 0 34.59 0 2.85 6.43 6.68
13:13 1 34.2 33 66,262 0 0 0 0 25.9 0 0.71 5.35 5.88
13:12 1 34.2 33 66,254 0 0 0 0 32.79 0 2.85 6.41 6.68
13:11 1 34.2 33 66,252 0 0 0 0 33.41 0 2.85 6.41 8.37
13:10 1 34.1 33 66,244 0 0 0 0 35.78 0 2.14 6.41 8.37